P/2017 S8 ( PanSTARRS )

Japanese version
Home page
Updated on November 23, 2017

---------------------------------------------------------------------

* Profile

Discovery Date September 30, 2017
Magnitude 20.2 mag
Discoverer Pan-STARRS 1 telescope (Haleakala)

* Orbital Elements

Epoch 2018 Feb. 11.0 TT = JDT 2458160.5
T 2018 Jan. 28.64283 TT                                 MPCW
q   1.6834118            (2000.0)            P               Q
n   0.21293593     Peri.  254.54632     +0.08969429     -0.99073612
a   2.7773893      Node   191.81408     +0.99159054     +0.07924121
e   0.3938870      Incl.   29.86976     -0.09329057     -0.11028491
P   4.63
From 144 observations 2017 Sept. 25-Oct. 27, mean residual 0".6.

* Magnitudes Graph

        m1 = 16.0 + 5 log d + 10.0 log r

---------------------------------------------------------------------

The orbital elements are published on M.P.E.C. 2017-V13.
The magnitudes graphs are made with Comet for Windows.

---------------------------------------------------------------------

Copyright(C) Seiichi Yoshida (comet@aerith.net). All rights reserved.